Wind_Speed
12 11 11 10 10 9 10 10 9 9 10 10 10 10 9 10 10 10 11 11 12 12 12 12 13 13 12 13 13 13 13 13 13 12 12 12 11 11 12 12 12 12 13
12 13 12 11 10 10 11 10 10 10 10 11 11 11 11 11 12 13 13 13 13 13 13 13 13 14 14 14 14 15 15 15 14 13 13 14 13 13 13 13 14 14 13
14 14 14 12 11 11 11 11 12 11 11 11 12 13 13 13 13 13 14 15 14 14 14 14 14 14 15 16 16 16 16 16 15 15 14 14 15 15 15 15 15 15 15
15 15 14 12 12 12 12 12 12 12 12 13 13 14 15 14 14 15 16 16 16 15 15 15 16 16 16 16 17 17 17 17 16 16 16 15 15 15 15 16 16 17 17
15 15 15 13 12 13 13 13 13 13 13 13 14 15 16 16 16 17 17 17 16 17 17 17 17 18 17 17 17 18 18 18 18 17 17 17 16 16 16 16 16 17 18
15 15 14 13 13 13 14 14 14 14 14 14 15 16 16 17 17 17 17 17 17 18 18 18 18 18 17 18 18 18 18 19 18 18 19 19 18 17 17 17 16 17 17
15 15 14 13 13 14 14 14 14 14 14 15 15 16 16 17 17 17 17 18 18 18 18 18 18 18 18 18 18 18 19 19 19 19 19 19 19 19 18 17 17 18 18
16 16 15 15 15 15 15 15 15 15 15 15 16 16 16 16 17 17 18 18 18 18 18 18 19 19 19 19 19 19 20 20 21 21 20 21 21 21 21 20 19 19 20
17 16 16 16 15 15 15 15 15 15 16 16 16 16 16 17 18 18 18 18 19 19 19 19 19 19 20 20 20 20 21 21 22 22 21 22 23 23 23 22 21 21 21
16 15 16 16 16 15 15 15 15 16 16 16 16 16 17 17 18 18 18 18 19 19 20 20 21 21 21 21 21 21 21 21 22 22 22 23 24 24 24 24 23 23 23
16 15 15 16 16 16 16 16 16 16 16 17 17 17 17 18 18 19 19 19 19 20 20 21 21 21 22 22 22 22 22 23 23 23 23 23 23 23 23 24 24 24 24
16 16 16 15 16 17 17 17 17 17 17 17 17 17 18 18 19 19 19 19 19 20 20 20 21 21 22 22 22 23 23 23 24 24 24 24 24 24 24 24 25 25 26
16 16 16 16 16 16 17 17 17 18 18 18 17 18 18 18 19 19 19 19 20 20 20 21 21 22 22 22 23 23 23 23 23 24 24 24 24 24 25 25 25 26 26
16 16 16 15 16 16 17 17 18 18 18 18 18 18 18 18 18 19 18 19 20 20 21 21 22 23 22 22 22 22 23 24 24 25 25 24 25 25 25 25 25 26 26
17 16 16 15 16 16 17 18 18 18 18 18 18 18 18 18 18 18 18 19 19 20 20 21 22 22 22 22 23 23 23 24 24 24 25 26 26 25 25 25 25 26 27
17 16 16 16 16 16 17 17 17 18 18 18 19 19 19 19 19 19 19 18 19 20 21 21 21 20 21 22 22 23 24 24 25 26 26 25 25 25 26 27 27 27 28
17 18 17 17 17 17 17 18 18 19 19 19 19 19 19 18 18 18 19 19 20 20 20 21 21 20 20 21 22 22 23 24 25 24 25 25 25 25 26 27 27 27 28
18 18 18 18 18 18 18 18 18 19 18 18 18 18 18 18 19 19 19 20 20 19 19 20 20 20 20 21 22 22 22 23 24 24 25 25 26 26 26 26 26 27 27
19 19 19 19 19 19 19 18 19 18 18 19 20 19 19 19 19 19 19 19 19 19 20 20 20 20 21 21 21 22 22 23 23 24 24 24 25 25 26 26 26 26 27
20 20 19 19 19 20 20 20 19 19 20 20 20 20 20 19 19 19 20 20 20 20 20 20 21 21 22 22 22 22 23 23 23 24 24 24 25 26 26 27 27 27 27
20 20 20 19 19 19 19 19 20 20 20 20 20 20 20 20 20 20 20 20 21 21 21 22 22 22 23 23 23 23 24 24 24 24 25 25 26 26 27 28 28 29 29
20 20 19 19 19 19 19 19 19 19 19 19 20 20 20 20 20 20 20 21 21 21 22 23 23 24 24 24 25 25 24 24 24 25 26 26 27 27 27 27 28 28 29
20 20 19 20 20 20 20 19 19 18 18 19 19 20 20 20 21 21 21 22 22 22 23 24 24 25 25 25 25 25 25 25 25 25 26 26 27 28 27 27 28 28 29
20 20 20 21 21 21 21 20 19 19 19 20 20 20 20 20 21 22 22 22 22 22 23 24 24 24 24 24 25 25 26 26 26 26 27 27 28 28 29 28 28 29 29
21 21 21 21 21 21 21 21 20 20 20 20 20 20 21 21 22 22 22 22 22 22 23 24 24 24 24 25 25 26 26 26 26 26 27 27 28 28 29 28 28 28 29
21 21 21 21 21 21 21 22 21 20 20 20 21 21 21 21 22 23 23 23 23 23 24 24 25 25 25 25 26 26 26 26 25 25 26 27 28 28 28 27 28 28 29
Wind_Direction
252 254 253 259 261 266 267 263 259 261 263 265 265 263 263 263 263 257 252 252 253 253 253 250 246 246 249 252 248 246 249 250 248 244 246 245 249 253 247 245 244 245 249
255 259 259 255 261 266 267 261 258 260 263 265 264 261 259 263 263 260 256 253 254 257 254 251 248 248 251 253 250 251 252 250 247 248 249 247 248 250 248 247 247 248 250
261 262 260 256 256 260 264 260 262 263 264 268 267 260 260 262 261 262 261 259 257 256 253 253 253 254 256 255 250 249 250 249 251 252 251 249 249 249 248 247 250 249 252
263 264 262 260 257 256 259 262 263 264 266 269 268 266 264 263 262 263 262 261 258 256 257 258 258 258 261 257 252 251 250 250 251 253 253 251 251 251 251 249 250 251 253
262 265 264 263 262 260 260 259 263 269 269 270 271 271 269 264 263 264 262 259 258 257 259 261 260 260 261 258 254 252 251 251 252 253 253 253 253 252 251 252 251 253 254
266 266 265 264 264 263 262 264 268 273 272 271 272 272 270 265 264 264 263 260 259 258 259 260 260 262 260 257 256 255 254 254 253 254 254 253 254 255 255 255 254 255 256
266 263 265 265 266 266 265 267 270 274 273 273 272 273 268 264 265 265 264 263 261 260 260 260 260 261 262 260 257 256 254 254 254 255 254 254 255 255 256 256 258 259 259
267 262 263 263 265 265 265 268 272 274 274 275 274 271 267 266 265 266 265 264 263 262 261 260 260 259 261 260 259 258 254 253 253 255 256 258 257 258 257 258 259 260 259
266 267 265 263 263 263 264 269 270 272 273 273 274 270 269 270 269 267 266 266 265 263 262 262 262 260 260 260 259 257 255 253 253 255 257 259 259 259 258 259 260 262 260
268 264 265 266 266 266 267 270 271 273 273 272 273 272 269 269 270 268 266 267 267 266 265 263 262 262 261 261 260 257 256 256 255 255 257 259 260 259 259 259 259 259 260
267 262 266 267 266 268 267 269 270 273 273 272 272 272 271 270 269 268 267 267 267 267 267 266 263 263 262 262 260 259 259 259 259 258 258 260 261 260 260 259 259 258 259
267 267 269 268 269 270 268 270 270 271 272 273 273 272 272 271 269 268 266 267 267 267 266 265 264 263 264 264 263 261 260 259 259 260 260 261 261 261 262 262 261 261 261
270 269 269 269 271 271 270 269 270 270 270 272 273 273 273 272 270 269 268 266 264 265 264 264 265 265 264 264 263 262 261 260 260 260 260 261 261 262 263 262 261 262 262
270 270 269 269 269 270 269 268 269 271 270 269 271 273 274 274 271 271 271 269 267 267 267 266 264 264 264 265 264 266 265 265 263 262 261 262 263 263 262 263 262 262 261
268 270 269 269 268 269 269 267 268 270 269 268 269 271 272 272 269 271 272 272 271 270 270 268 267 266 264 266 267 268 268 268 267 264 262 263 264 263 263 263 263 263 262
268 270 270 270 269 269 268 266 268 269 269 268 269 270 271 272 271 272 272 271 272 273 270 269 269 269 269 270 270 269 269 269 268 267 266 265 263 262 262 262 262 262 262
268 269 269 271 272 272 272 268 269 270 270 270 270 271 272 270 271 272 272 273 276 276 273 271 271 272 272 273 272 272 272 272 272 271 268 266 265 262 262 261 261 262 262
268 268 269 270 270 272 274 272 272 274 271 271 271 271 271 273 273 273 273 274 277 277 276 275 274 274 275 276 276 275 274 274 273 271 269 267 266 264 263 262 262 262 263
267 269 270 269 269 270 273 274 274 274 273 273 273 272 272 273 274 274 274 275 276 275 276 276 275 276 278 280 279 277 276 276 273 271 270 269 268 268 266 265 265 264 264
269 270 269 269 271 273 275 277 277 275 275 275 274 272 271 273 274 275 274 275 275 275 275 275 276 277 278 279 279 277 276 275 274 274 273 271 272 271 269 268 267 266 265
268 269 268 269 271 274 277 277 278 276 274 273 272 271 271 273 274 274 275 275 276 276 275 275 277 277 279 278 278 277 278 276 275 275 274 273 273 273 272 270 268 267 265
265 267 267 269 272 273 275 277 278 276 273 272 271 271 273 274 276 275 275 275 276 276 276 277 276 276 278 278 277 277 279 278 276 274 274 273 274 274 273 271 269 267 267
264 266 268 269 269 272 275 276 276 275 275 275 273 272 273 274 275 276 277 276 276 277 277 279 278 278 278 278 278 279 278 278 277 276 275 274 274 274 273 271 269 267 266
265 266 268 271 271 272 274 274 272 273 275 276 276 276 275 275 274 275 276 277 277 278 280 281 281 279 278 278 279 279 278 278 278 277 276 276 275 276 275 272 270 269 267
267 267 269 269 271 272 273 273 271 271 272 274 275 276 277 276 275 275 277 279 279 279 281 284 284 282 280 278 278 279 280 280 278 277 277 278 278 278 278 274 273 271 268
267 269 270 270 270 271 273 273 273 273 272 273 274 276 277 277 277 276 277 279 280 280 280 282 284 282 281 280 279 280 282 281 281 279 280 281 280 278 278 276 274 273 271
Height
5863 5863 5863 5864 5864 5864 5864 5863 5863 5863 5864 5864 5864 5864 5864 5865 5865 5865 5865 5866 5866 5867 5867 5868 5868 5869 5869 5870 5870 5871 5872 5873 5873 5874 5875 5876 5877 5878 5879 5880 5880 5881 5882
5861 5861 5860 5860 5861 5861 5861 5860 5860 5861 5861 5861 5862 5862 5862 5862 5862 5862 5863 5863 5864 5864 5865 5865 5865 5866 5867 5867 5867 5868 5869 5869 5870 5872 5872 5874 5874 5875 5876 5877 5878 5879 5879
5858 5857 5857 5857 5857 5858 5857 5858 5858 5858 5858 5858 5859 5859 5859 5859 5859 5859 5860 5860 5861 5861 5862 5862 5862 5863 5863 5864 5864 5865 5865 5866 5867 5868 5869 5870 5871 5872 5873 5874 5875 5875 5876
5854 5854 5854 5854 5854 5854 5854 5855 5855 5854 5854 5855 5855 5855 5855 5856 5856 5856 5856 5857 5857 5858 5858 5858 5859 5859 5860 5860 5861 5862 5862 5863 5864 5865 5866 5867 5868 5869 5870 5870 5871 5872 5873
5851 5851 5852 5851 5851 5851 5852 5852 5852 5851 5851 5851 5851 5851 5852 5852 5852 5852 5852 5853 5853 5854 5854 5854 5855 5855 5856 5856 5857 5858 5859 5859 5861 5861 5862 5863 5864 5865 5865 5866 5867 5868 5869
5848 5848 5848 5848 5848 5848 5849 5849 5849 5848 5848 5847 5847 5847 5847 5847 5847 5848 5848 5848 5849 5849 5850 5850 5851 5851 5851 5852 5853 5853 5854 5855 5856 5857 5858 5859 5860 5861 5861 5862 5862 5863 5864
5845 5845 5845 5845 5845 5845 5845 5845 5845 5844 5844 5843 5843 5843 5843 5843 5843 5844 5844 5844 5845 5845 5845 5846 5846 5847 5847 5847 5848 5849 5850 5851 5852 5853 5854 5855 5856 5856 5857 5858 5858 5859 5860
5842 5841 5842 5842 5842 5841 5841 5841 5841 5840 5840 5839 5839 5839 5839 5840 5839 5839 5840 5840 5840 5840 5841 5841 5842 5842 5842 5843 5843 5844 5845 5846 5847 5848 5849 5850 5851 5851 5852 5853 5854 5854 5855
5838 5838 5837 5837 5838 5838 5838 5837 5837 5836 5836 5835 5835 5835 5835 5835 5835 5835 5835 5835 5835 5836 5836 5836 5837 5837 5838 5838 5838 5839 5840 5840 5841 5842 5843 5844 5845 5846 5847 5848 5849 5849 5850
5834 5834 5834 5833 5833 5833 5833 5833 5833 5833 5832 5831 5831 5831 5831 5831 5831 5831 5831 5831 5830 5831 5831 5831 5831 5832 5832 5833 5833 5834 5835 5835 5836 5836 5837 5838 5839 5840 5841 5842 5843 5843 5844
5830 5830 5830 5830 5830 5830 5829 5829 5829 5828 5828 5828 5827 5827 5826 5826 5826 5826 5826 5826 5826 5826 5826 5826 5826 5826 5826 5827 5827 5828 5829 5829 5830 5830 5831 5832 5833 5834 5835 5836 5836 5837 5837
5826 5826 5825 5825 5825 5825 5825 5825 5825 5824 5824 5823 5823 5822 5822 5822 5821 5821 5821 5820 5820 5820 5820 5820 5820 5820 5821 5821 5821 5822 5822 5822 5823 5824 5825 5826 5827 5828 5828 5829 5830 5830 5831
5822 5822 5821 5821 5821 5821 5820 5820 5820 5820 5819 5819 5818 5818 5817 5817 5816 5815 5815 5815 5815 5815 5814 5814 5814 5815 5815 5815 5815 5815 5816 5816 5817 5818 5819 5819 5820 5821 5822 5822 5823 5823 5824
5817 5817 5817 5817 5817 5816 5816 5816 5816 5815 5815 5814 5814 5813 5813 5812 5811 5810 5810 5809 5809 5809 5809 5808 5808 5808 5808 5809 5809 5809 5810 5810 5811 5811 5812 5813 5813 5814 5814 5815 5816 5816 5817
5813 5813 5813 5812 5812 5812 5812 5811 5811 5811 5810 5809 5809 5808 5808 5807 5806 5805 5804 5804 5804 5804 5803 5802 5802 5802 5802 5802 5803 5803 5803 5804 5804 5805 5805 5806 5806 5806 5807 5808 5808 5809 5810
5809 5809 5809 5808 5808 5808 5807 5807 5806 5806 5805 5805 5804 5803 5803 5802 5801 5800 5800 5799 5798 5798 5798 5797 5797 5796 5796 5796 5797 5797 5797 5797 5797 5797 5798 5798 5798 5799 5800 5800 5801 5802 5802
5804 5804 5804 5804 5803 5803 5802 5802 5801 5801 5800 5800 5799 5798 5797 5797 5796 5796 5795 5794 5793 5792 5792 5792 5791 5791 5791 5791 5791 5790 5790 5790 5790 5790 5790 5791 5791 5791 5792 5792 5793 5794 5795
5800 5799 5799 5799 5798 5798 5797 5797 5796 5795 5795 5794 5793 5793 5792 5791 5791 5790 5790 5789 5788 5787 5787 5786 5786 5785 5785 5785 5784 5784 5783 5783 5783 5783 5783 5783 5783 5784 5784 5784 5785 5786 5787
5794 5794 5794 5793 5793 5792 5792 5791 5790 5789 5789 5788 5788 5787 5787 5786 5786 5785 5784 5784 5783 5782 5781 5781 5780 5779 5779 5778 5778 5778 5777 5776 5776 5776 5776 5776 5776 5776 5776 5777 5777 5778 5778
5789 5789 5788 5788 5787 5786 5786 5785 5784 5783 5783 5782 5782 5781 5781 5781 5780 5779 5779 5778 5777 5776 5776 5775 5774 5773 5773 5772 5772 5771 5770 5770 5769 5769 5769 5768 5768 5768 5768 5769 5769 5770 5770
5783 5783 5783 5782 5781 5781 5780 5779 5778 5777 5776 5776 5775 5775 5775 5775 5774 5774 5773 5772 5772 5771 5770 5769 5768 5767 5767 5766 5765 5764 5763 5763 5762 5761 5761 5761 5761 5761 5760 5760 5761 5761 5761
5778 5777 5777 5777 5776 5775 5774 5773 5773 5771 5771 5770 5769 5769 5768 5768 5768 5767 5767 5767 5766 5765 5764 5763 5762 5761 5760 5759 5758 5757 5756 5756 5755 5755 5754 5753 5753 5752 5752 5752 5752 5752 5752
5772 5772 5771 5771 5770 5769 5769 5768 5767 5766 5765 5764 5763 5763 5762 5762 5761 5761 5761 5760 5760 5759 5758 5757 5756 5755 5754 5752 5751 5750 5749 5748 5748 5747 5746 5745 5745 5744 5743 5743 5743 5743 5744
5766 5765 5765 5764 5764 5763 5763 5762 5761 5760 5759 5759 5758 5757 5756 5756 5755 5755 5754 5754 5753 5752 5751 5750 5749 5748 5746 5745 5744 5743 5742 5741 5740 5739 5738 5737 5736 5736 5735 5734 5734 5735 5735
5759 5759 5758 5758 5758 5757 5757 5756 5755 5754 5754 5753 5752 5751 5750 5750 5749 5748 5748 5747 5746 5746 5745 5743 5742 5741 5739 5738 5737 5736 5734 5733 5732 5731 5730 5729 5728 5727 5727 5726 5726 5726 5726
5753 5752 5752 5752 5751 5751 5751 5750 5749 5748 5748 5747 5746 5745 5744 5744 5743 5742 5741 5740 5740 5739 5738 5737 5735 5734 5732 5731 5729 5728 5727 5725 5724 5723 5722 5721 5720 5719 5719 5718 5717 5717 5717